<?xml version="1.0" encoding="utf-8"?>
<gpx xmlns:xsi="http://www.w3.org/2001/XMLSchema-instance" xmlns:xsd="http://www.w3.org/2001/XMLSchema" version="1.1" creator="Shapelink.com" xmlns="http://www.topografix.com/GPX/1/1" xmlns:gpxtpx="http://www.garmin.com/xmlschemas/TrackPointExtension/v1">
  <metadata>
    <name>Kører 3.10 km, 2013-05-13</name>
    <desc></desc>
    <author><name>Mattias Eriksson</name></author> 
    <time>1970-01-01T01:00:00Z</time>
  </metadata>
  <trk>
    <name>Kører 3.10 km, 2013-05-13</name>
    <trkseg>
      <trkpt lat="55.599391" lon="12.957143">
        <ele>0.857143</ele>
        <time>1970-01-01T01:00:00Z</time>
      </trkpt>
      <trkpt lat="55.59935" lon="12.956982">
        <ele>0.75</ele>
        <time>1970-01-01T01:00:00Z</time>
      </trkpt>
      <trkpt lat="55.599307" lon="12.956857">
        <ele>0.666667</ele>
        <time>1970-01-01T01:00:00Z</time>
      </trkpt>
      <trkpt lat="55.599282" lon="12.956715">
        <ele>0.6</ele>
        <time>1970-01-01T01:00:00Z</time>
      </trkpt>
      <trkpt lat="55.599248" lon="12.956583">
        <ele>0.545455</ele>
        <time>1970-01-01T01:00:00Z</time>
      </trkpt>
      <trkpt lat="55.599205" lon="12.956432">
        <ele>0.545455</ele>
        <time>1970-01-01T01:00:00Z</time>
      </trkpt>
      <trkpt lat="55.599126" lon="12.956347">
        <ele>0.454545</ele>
        <time>1970-01-01T01:00:00Z</time>
      </trkpt>
      <trkpt lat="55.599063" lon="12.956246">
        <ele>0.363636</ele>
        <time>1970-01-01T01:00:00Z</time>
      </trkpt>
      <trkpt lat="55.599011" lon="12.956134">
        <ele>0.272727</ele>
        <time>1970-01-01T01:00:00Z</time>
      </trkpt>
      <trkpt lat="55.598949" lon="12.955993">
        <ele>0.181818</ele>
        <time>1970-01-01T01:00:00Z</time>
      </trkpt>
      <trkpt lat="55.598893" lon="12.955847">
        <ele>0.0909091</ele>
        <time>1970-01-01T01:00:00Z</time>
      </trkpt>
      <trkpt lat="55.598849" lon="12.955695">
        <ele>0</ele>
        <time>1970-01-01T01:00:00Z</time>
      </trkpt>
      <trkpt lat="55.598805" lon="12.955555">
        <ele>0</ele>
        <time>1970-01-01T01:00:00Z</time>
      </trkpt>
      <trkpt lat="55.598768" lon="12.955417">
        <ele>0</ele>
        <time>1970-01-01T01:00:00Z</time>
      </trkpt>
      <trkpt lat="55.598718" lon="12.955281">
        <ele>0</ele>
        <time>1970-01-01T01:00:00Z</time>
      </trkpt>
      <trkpt lat="55.598668" lon="12.95512">
        <ele>0</ele>
        <time>1970-01-01T01:00:00Z</time>
      </trkpt>
      <trkpt lat="55.598623" lon="12.954997">
        <ele>0</ele>
        <time>1970-01-01T01:00:00Z</time>
      </trkpt>
      <trkpt lat="55.598562" lon="12.954846">
        <ele>0</ele>
        <time>1970-01-01T01:00:00Z</time>
      </trkpt>
      <trkpt lat="55.59851" lon="12.954702">
        <ele>0</ele>
        <time>1970-01-01T01:00:00Z</time>
      </trkpt>
      <trkpt lat="55.598461" lon="12.954577">
        <ele>0</ele>
        <time>1970-01-01T01:00:00Z</time>
      </trkpt>
      <trkpt lat="55.5984" lon="12.954429">
        <ele>0</ele>
        <time>1970-01-01T01:00:00Z</time>
      </trkpt>
      <trkpt lat="55.598361" lon="12.9543">
        <ele>0</ele>
        <time>1970-01-01T01:00:00Z</time>
      </trkpt>
      <trkpt lat="55.598324" lon="12.95417">
        <ele>0</ele>
        <time>1970-01-01T01:00:00Z</time>
      </trkpt>
      <trkpt lat="55.598264" lon="12.954016">
        <ele>0</ele>
        <time>1970-01-01T01:00:00Z</time>
      </trkpt>
      <trkpt lat="55.5982" lon="12.953875">
        <ele>0</ele>
        <time>1970-01-01T01:00:00Z</time>
      </trkpt>
      <trkpt lat="55.598134" lon="12.953711">
        <ele>0</ele>
        <time>1970-01-01T01:00:00Z</time>
      </trkpt>
      <trkpt lat="55.598097" lon="12.953581">
        <ele>0</ele>
        <time>1970-01-01T01:00:00Z</time>
      </trkpt>
      <trkpt lat="55.598046" lon="12.953455">
        <ele>0</ele>
        <time>1970-01-01T01:00:00Z</time>
      </trkpt>
      <trkpt lat="55.597992" lon="12.953329">
        <ele>0</ele>
        <time>1970-01-01T01:00:00Z</time>
      </trkpt>
      <trkpt lat="55.597944" lon="12.953205">
        <ele>0</ele>
        <time>1970-01-01T01:00:00Z</time>
      </trkpt>
      <trkpt lat="55.59789" lon="12.953064">
        <ele>0</ele>
        <time>1970-01-01T01:00:00Z</time>
      </trkpt>
      <trkpt lat="55.597829" lon="12.952924">
        <ele>0</ele>
        <time>1970-01-01T01:00:00Z</time>
      </trkpt>
      <trkpt lat="55.597782" lon="12.952767">
        <ele>0</ele>
        <time>1970-01-01T01:00:00Z</time>
      </trkpt>
      <trkpt lat="55.597728" lon="12.952645">
        <ele>0</ele>
        <time>1970-01-01T01:00:00Z</time>
      </trkpt>
      <trkpt lat="55.597668" lon="12.952489">
        <ele>0</ele>
        <time>1970-01-01T01:00:00Z</time>
      </trkpt>
      <trkpt lat="55.597616" lon="12.952347">
        <ele>0</ele>
        <time>1970-01-01T01:00:00Z</time>
      </trkpt>
      <trkpt lat="55.597577" lon="12.952219">
        <ele>0</ele>
        <time>1970-01-01T01:00:00Z</time>
      </trkpt>
      <trkpt lat="55.597532" lon="12.952073">
        <ele>0</ele>
        <time>1970-01-01T01:00:00Z</time>
      </trkpt>
      <trkpt lat="55.597492" lon="12.951944">
        <ele>0.0909091</ele>
        <time>1970-01-01T01:00:00Z</time>
      </trkpt>
      <trkpt lat="55.597439" lon="12.951804">
        <ele>0.181818</ele>
        <time>1970-01-01T01:00:00Z</time>
      </trkpt>
      <trkpt lat="55.597394" lon="12.951663">
        <ele>0.272727</ele>
        <time>1970-01-01T01:00:00Z</time>
      </trkpt>
      <trkpt lat="55.597344" lon="12.95154">
        <ele>0.272727</ele>
        <time>1970-01-01T01:00:00Z</time>
      </trkpt>
      <trkpt lat="55.597281" lon="12.951393">
        <ele>0.363636</ele>
        <time>1970-01-01T01:00:00Z</time>
      </trkpt>
      <trkpt lat="55.597226" lon="12.951235">
        <ele>0.454545</ele>
        <time>1970-01-01T01:00:00Z</time>
      </trkpt>
      <trkpt lat="55.597168" lon="12.95108">
        <ele>0.545455</ele>
        <time>1970-01-01T01:00:00Z</time>
      </trkpt>
      <trkpt lat="55.597115" lon="12.950957">
        <ele>0.545455</ele>
        <time>1970-01-01T01:00:00Z</time>
      </trkpt>
      <trkpt lat="55.597072" lon="12.950827">
        <ele>0.545455</ele>
        <time>1970-01-01T01:00:00Z</time>
      </trkpt>
      <trkpt lat="55.597119" lon="12.950956">
        <ele>0.545455</ele>
        <time>1970-01-01T01:00:00Z</time>
      </trkpt>
      <trkpt lat="55.597184" lon="12.951097">
        <ele>0.545455</ele>
        <time>1970-01-01T01:00:00Z</time>
      </trkpt>
      <trkpt lat="55.597248" lon="12.951245">
        <ele>0.454545</ele>
        <time>1970-01-01T01:00:00Z</time>
      </trkpt>
      <trkpt lat="55.597304" lon="12.951384">
        <ele>0.363636</ele>
        <time>1970-01-01T01:00:00Z</time>
      </trkpt>
      <trkpt lat="55.597342" lon="12.951535">
        <ele>0.272727</ele>
        <time>1970-01-01T01:00:00Z</time>
      </trkpt>
      <trkpt lat="55.597393" lon="12.95169">
        <ele>0.272727</ele>
        <time>1970-01-01T01:00:00Z</time>
      </trkpt>
      <trkpt lat="55.597449" lon="12.9518">
        <ele>0.181818</ele>
        <time>1970-01-01T01:00:00Z</time>
      </trkpt>
      <trkpt lat="55.597492" lon="12.951931">
        <ele>0.0909091</ele>
        <time>1970-01-01T01:00:00Z</time>
      </trkpt>
      <trkpt lat="55.597539" lon="12.952083">
        <ele>0</ele>
        <time>1970-01-01T01:00:00Z</time>
      </trkpt>
      <trkpt lat="55.597592" lon="12.952232">
        <ele>0</ele>
        <time>1970-01-01T01:00:00Z</time>
      </trkpt>
      <trkpt lat="55.597642" lon="12.952368">
        <ele>0</ele>
        <time>1970-01-01T01:00:00Z</time>
      </trkpt>
      <trkpt lat="55.597695" lon="12.952497">
        <ele>0</ele>
        <time>1970-01-01T01:00:00Z</time>
      </trkpt>
      <trkpt lat="55.597747" lon="12.952645">
        <ele>0</ele>
        <time>1970-01-01T01:00:00Z</time>
      </trkpt>
      <trkpt lat="55.5978" lon="12.952792">
        <ele>0</ele>
        <time>1970-01-01T01:00:00Z</time>
      </trkpt>
      <trkpt lat="55.597842" lon="12.952923">
        <ele>0</ele>
        <time>1970-01-01T01:00:00Z</time>
      </trkpt>
      <trkpt lat="55.597896" lon="12.95304">
        <ele>0</ele>
        <time>1970-01-01T01:00:00Z</time>
      </trkpt>
      <trkpt lat="55.597949" lon="12.953192">
        <ele>0</ele>
        <time>1970-01-01T01:00:00Z</time>
      </trkpt>
      <trkpt lat="55.598004" lon="12.953338">
        <ele>0</ele>
        <time>1970-01-01T01:00:00Z</time>
      </trkpt>
      <trkpt lat="55.598049" lon="12.953464">
        <ele>0</ele>
        <time>1970-01-01T01:00:00Z</time>
      </trkpt>
      <trkpt lat="55.598093" lon="12.953591">
        <ele>0</ele>
        <time>1970-01-01T01:00:00Z</time>
      </trkpt>
      <trkpt lat="55.598138" lon="12.953712">
        <ele>0</ele>
        <time>1970-01-01T01:00:00Z</time>
      </trkpt>
      <trkpt lat="55.598182" lon="12.953845">
        <ele>0</ele>
        <time>1970-01-01T01:00:00Z</time>
      </trkpt>
      <trkpt lat="55.598242" lon="12.953959">
        <ele>0</ele>
        <time>1970-01-01T01:00:00Z</time>
      </trkpt>
      <trkpt lat="55.5983" lon="12.954089">
        <ele>0</ele>
        <time>1970-01-01T01:00:00Z</time>
      </trkpt>
      <trkpt lat="55.598336" lon="12.954244">
        <ele>0</ele>
        <time>1970-01-01T01:00:00Z</time>
      </trkpt>
      <trkpt lat="55.59835" lon="12.95441">
        <ele>0</ele>
        <time>1970-01-01T01:00:00Z</time>
      </trkpt>
      <trkpt lat="55.598392" lon="12.954561">
        <ele>0</ele>
        <time>1970-01-01T01:00:00Z</time>
      </trkpt>
      <trkpt lat="55.598465" lon="12.954686">
        <ele>0</ele>
        <time>1970-01-01T01:00:00Z</time>
      </trkpt>
      <trkpt lat="55.59854" lon="12.954818">
        <ele>0</ele>
        <time>1970-01-01T01:00:00Z</time>
      </trkpt>
      <trkpt lat="55.598597" lon="12.954957">
        <ele>0</ele>
        <time>1970-01-01T01:00:00Z</time>
      </trkpt>
      <trkpt lat="55.598656" lon="12.955094">
        <ele>0</ele>
        <time>1970-01-01T01:00:00Z</time>
      </trkpt>
      <trkpt lat="55.598706" lon="12.955232">
        <ele>0</ele>
        <time>1970-01-01T01:00:00Z</time>
      </trkpt>
      <trkpt lat="55.59876" lon="12.955358">
        <ele>0</ele>
        <time>1970-01-01T01:00:00Z</time>
      </trkpt>
      <trkpt lat="55.598803" lon="12.955511">
        <ele>0</ele>
        <time>1970-01-01T01:00:00Z</time>
      </trkpt>
      <trkpt lat="55.598848" lon="12.955634">
        <ele>0</ele>
        <time>1970-01-01T01:00:00Z</time>
      </trkpt>
      <trkpt lat="55.598898" lon="12.955784">
        <ele>0.0909091</ele>
        <time>1970-01-01T01:00:00Z</time>
      </trkpt>
      <trkpt lat="55.598946" lon="12.955936">
        <ele>0.181818</ele>
        <time>1970-01-01T01:00:00Z</time>
      </trkpt>
      <trkpt lat="55.598988" lon="12.956082">
        <ele>0.272727</ele>
        <time>1970-01-01T01:00:00Z</time>
      </trkpt>
      <trkpt lat="55.599042" lon="12.956209">
        <ele>0.363636</ele>
        <time>1970-01-01T01:00:00Z</time>
      </trkpt>
      <trkpt lat="55.599079" lon="12.95634">
        <ele>0.454545</ele>
        <time>1970-01-01T01:00:00Z</time>
      </trkpt>
      <trkpt lat="55.599103" lon="12.95648">
        <ele>0.454545</ele>
        <time>1970-01-01T01:00:00Z</time>
      </trkpt>
      <trkpt lat="55.599138" lon="12.956636">
        <ele>0.454545</ele>
        <time>1970-01-01T01:00:00Z</time>
      </trkpt>
      <trkpt lat="55.599175" lon="12.956773">
        <ele>0.454545</ele>
        <time>1970-01-01T01:00:00Z</time>
      </trkpt>
      <trkpt lat="55.599214" lon="12.956926">
        <ele>0.454545</ele>
        <time>1970-01-01T01:00:00Z</time>
      </trkpt>
      <trkpt lat="55.599263" lon="12.957072">
        <ele>0.454545</ele>
        <time>1970-01-01T01:00:00Z</time>
      </trkpt>
      <trkpt lat="55.599307" lon="12.957228">
        <ele>0.454545</ele>
        <time>1970-01-01T01:00:00Z</time>
      </trkpt>
      <trkpt lat="55.599354" lon="12.957386">
        <ele>0.272727</ele>
        <time>1970-01-01T01:00:00Z</time>
      </trkpt>
      <trkpt lat="55.599393" lon="12.95752">
        <ele>0.0909091</ele>
        <time>1970-01-01T01:00:00Z</time>
      </trkpt>
      <trkpt lat="55.599435" lon="12.957654">
        <ele>0</ele>
        <time>1970-01-01T01:00:00Z</time>
      </trkpt>
      <trkpt lat="55.599476" lon="12.957793">
        <ele>0</ele>
        <time>1970-01-01T01:00:00Z</time>
      </trkpt>
      <trkpt lat="55.599518" lon="12.957929">
        <ele>0</ele>
        <time>1970-01-01T01:00:00Z</time>
      </trkpt>
      <trkpt lat="55.599558" lon="12.958079">
        <ele>0</ele>
        <time>1970-01-01T01:00:00Z</time>
      </trkpt>
      <trkpt lat="55.599608" lon="12.958226">
        <ele>0</ele>
        <time>1970-01-01T01:00:00Z</time>
      </trkpt>
      <trkpt lat="55.599652" lon="12.958348">
        <ele>0</ele>
        <time>1970-01-01T01:00:00Z</time>
      </trkpt>
      <trkpt lat="55.599687" lon="12.958487">
        <ele>0</ele>
        <time>1970-01-01T01:00:00Z</time>
      </trkpt>
      <trkpt lat="55.599726" lon="12.958624">
        <ele>0</ele>
        <time>1970-01-01T01:00:00Z</time>
      </trkpt>
      <trkpt lat="55.599769" lon="12.958756">
        <ele>0</ele>
        <time>1970-01-01T01:00:00Z</time>
      </trkpt>
      <trkpt lat="55.599802" lon="12.958919">
        <ele>0</ele>
        <time>1970-01-01T01:00:00Z</time>
      </trkpt>
      <trkpt lat="55.599846" lon="12.959083">
        <ele>0</ele>
        <time>1970-01-01T01:00:00Z</time>
      </trkpt>
      <trkpt lat="55.599893" lon="12.959211">
        <ele>0</ele>
        <time>1970-01-01T01:00:00Z</time>
      </trkpt>
      <trkpt lat="55.599927" lon="12.959344">
        <ele>0</ele>
        <time>1970-01-01T01:00:00Z</time>
      </trkpt>
      <trkpt lat="55.599961" lon="12.959476">
        <ele>0</ele>
        <time>1970-01-01T01:00:00Z</time>
      </trkpt>
      <trkpt lat="55.600005" lon="12.959632">
        <ele>0</ele>
        <time>1970-01-01T01:00:00Z</time>
      </trkpt>
      <trkpt lat="55.600033" lon="12.959775">
        <ele>0</ele>
        <time>1970-01-01T01:00:00Z</time>
      </trkpt>
      <trkpt lat="55.600074" lon="12.959905">
        <ele>0</ele>
        <time>1970-01-01T01:00:00Z</time>
      </trkpt>
      <trkpt lat="55.600117" lon="12.960038">
        <ele>0</ele>
        <time>1970-01-01T01:00:00Z</time>
      </trkpt>
      <trkpt lat="55.600158" lon="12.960197">
        <ele>0</ele>
        <time>1970-01-01T01:00:00Z</time>
      </trkpt>
      <trkpt lat="55.600168" lon="12.960364">
        <ele>0</ele>
        <time>1970-01-01T01:00:00Z</time>
      </trkpt>
      <trkpt lat="55.600186" lon="12.96051">
        <ele>0</ele>
        <time>1970-01-01T01:00:00Z</time>
      </trkpt>
      <trkpt lat="55.600247" lon="12.960648">
        <ele>0</ele>
        <time>1970-01-01T01:00:00Z</time>
      </trkpt>
      <trkpt lat="55.600296" lon="12.960774">
        <ele>0</ele>
        <time>1970-01-01T01:00:00Z</time>
      </trkpt>
      <trkpt lat="55.600348" lon="12.960892">
        <ele>0</ele>
        <time>1970-01-01T01:00:00Z</time>
      </trkpt>
      <trkpt lat="55.600381" lon="12.961036">
        <ele>0</ele>
        <time>1970-01-01T01:00:00Z</time>
      </trkpt>
      <trkpt lat="55.600434" lon="12.961184">
        <ele>0</ele>
        <time>1970-01-01T01:00:00Z</time>
      </trkpt>
      <trkpt lat="55.600472" lon="12.961343">
        <ele>0</ele>
        <time>1970-01-01T01:00:00Z</time>
      </trkpt>
      <trkpt lat="55.600519" lon="12.961471">
        <ele>0</ele>
        <time>1970-01-01T01:00:00Z</time>
      </trkpt>
      <trkpt lat="55.60056" lon="12.961631">
        <ele>0</ele>
        <time>1970-01-01T01:00:00Z</time>
      </trkpt>
      <trkpt lat="55.600606" lon="12.961762">
        <ele>0</ele>
        <time>1970-01-01T01:00:00Z</time>
      </trkpt>
      <trkpt lat="55.600653" lon="12.96189">
        <ele>0</ele>
        <time>1970-01-01T01:00:00Z</time>
      </trkpt>
      <trkpt lat="55.600712" lon="12.96199">
        <ele>0</ele>
        <time>1970-01-01T01:00:00Z</time>
      </trkpt>
      <trkpt lat="55.600752" lon="12.96215">
        <ele>0</ele>
        <time>1970-01-01T01:00:00Z</time>
      </trkpt>
      <trkpt lat="55.600778" lon="12.962287">
        <ele>0</ele>
        <time>1970-01-01T01:00:00Z</time>
      </trkpt>
      <trkpt lat="55.600829" lon="12.962446">
        <ele>0.0909091</ele>
        <time>1970-01-01T01:00:00Z</time>
      </trkpt>
      <trkpt lat="55.600865" lon="12.962583">
        <ele>0.363636</ele>
        <time>1970-01-01T01:00:00Z</time>
      </trkpt>
      <trkpt lat="55.600912" lon="12.962732">
        <ele>0.636364</ele>
        <time>1970-01-01T01:00:00Z</time>
      </trkpt>
      <trkpt lat="55.60095" lon="12.962868">
        <ele>0.909091</ele>
        <time>1970-01-01T01:00:00Z</time>
      </trkpt>
      <trkpt lat="55.600993" lon="12.963009">
        <ele>1.09091</ele>
        <time>1970-01-01T01:00:00Z</time>
      </trkpt>
      <trkpt lat="55.601033" lon="12.963135">
        <ele>1.27273</ele>
        <time>1970-01-01T01:00:00Z</time>
      </trkpt>
      <trkpt lat="55.601067" lon="12.963292">
        <ele>1.45455</ele>
        <time>1970-01-01T01:00:00Z</time>
      </trkpt>
      <trkpt lat="55.601102" lon="12.963455">
        <ele>1.63636</ele>
        <time>1970-01-01T01:00:00Z</time>
      </trkpt>
      <trkpt lat="55.601124" lon="12.963602">
        <ele>1.63636</ele>
        <time>1970-01-01T01:00:00Z</time>
      </trkpt>
      <trkpt lat="55.601157" lon="12.963743">
        <ele>1.63636</ele>
        <time>1970-01-01T01:00:00Z</time>
      </trkpt>
      <trkpt lat="55.601209" lon="12.963891">
        <ele>1.45455</ele>
        <time>1970-01-01T01:00:00Z</time>
      </trkpt>
      <trkpt lat="55.601241" lon="12.964033">
        <ele>1.27273</ele>
        <time>1970-01-01T01:00:00Z</time>
      </trkpt>
      <trkpt lat="55.601283" lon="12.964182">
        <ele>1.09091</ele>
        <time>1970-01-01T01:00:00Z</time>
      </trkpt>
      <trkpt lat="55.601329" lon="12.964305">
        <ele>0.909091</ele>
        <time>1970-01-01T01:00:00Z</time>
      </trkpt>
      <trkpt lat="55.601382" lon="12.964458">
        <ele>0.727273</ele>
        <time>1970-01-01T01:00:00Z</time>
      </trkpt>
      <trkpt lat="55.601412" lon="12.964617">
        <ele>0.545455</ele>
        <time>1970-01-01T01:00:00Z</time>
      </trkpt>
      <trkpt lat="55.601458" lon="12.964757">
        <ele>0.363636</ele>
        <time>1970-01-01T01:00:00Z</time>
      </trkpt>
      <trkpt lat="55.601495" lon="12.964887">
        <ele>0.181818</ele>
        <time>1970-01-01T01:00:00Z</time>
      </trkpt>
      <trkpt lat="55.601531" lon="12.965023">
        <ele>0</ele>
        <time>1970-01-01T01:00:00Z</time>
      </trkpt>
      <trkpt lat="55.601569" lon="12.965187">
        <ele>0</ele>
        <time>1970-01-01T01:00:00Z</time>
      </trkpt>
      <trkpt lat="55.601616" lon="12.965309">
        <ele>0</ele>
        <time>1970-01-01T01:00:00Z</time>
      </trkpt>
      <trkpt lat="55.601667" lon="12.965452">
        <ele>0</ele>
        <time>1970-01-01T01:00:00Z</time>
      </trkpt>
      <trkpt lat="55.601707" lon="12.96559">
        <ele>0</ele>
        <time>1970-01-01T01:00:00Z</time>
      </trkpt>
      <trkpt lat="55.601747" lon="12.965739">
        <ele>0</ele>
        <time>1970-01-01T01:00:00Z</time>
      </trkpt>
      <trkpt lat="55.601794" lon="12.965903">
        <ele>0</ele>
        <time>1970-01-01T01:00:00Z</time>
      </trkpt>
      <trkpt lat="55.60183" lon="12.96604">
        <ele>0</ele>
        <time>1970-01-01T01:00:00Z</time>
      </trkpt>
      <trkpt lat="55.601876" lon="12.966196">
        <ele>0</ele>
        <time>1970-01-01T01:00:00Z</time>
      </trkpt>
      <trkpt lat="55.601914" lon="12.966328">
        <ele>0</ele>
        <time>1970-01-01T01:00:00Z</time>
      </trkpt>
      <trkpt lat="55.601956" lon="12.966478">
        <ele>0</ele>
        <time>1970-01-01T01:00:00Z</time>
      </trkpt>
      <trkpt lat="55.601997" lon="12.966629">
        <ele>0</ele>
        <time>1970-01-01T01:00:00Z</time>
      </trkpt>
      <trkpt lat="55.602026" lon="12.966799">
        <ele>0</ele>
        <time>1970-01-01T01:00:00Z</time>
      </trkpt>
      <trkpt lat="55.602066" lon="12.96695">
        <ele>0</ele>
        <time>1970-01-01T01:00:00Z</time>
      </trkpt>
      <trkpt lat="55.602119" lon="12.967081">
        <ele>0</ele>
        <time>1970-01-01T01:00:00Z</time>
      </trkpt>
      <trkpt lat="55.602157" lon="12.967223">
        <ele>0</ele>
        <time>1970-01-01T01:00:00Z</time>
      </trkpt>
      <trkpt lat="55.602197" lon="12.967384">
        <ele>0</ele>
        <time>1970-01-01T01:00:00Z</time>
      </trkpt>
      <trkpt lat="55.602232" lon="12.967539">
        <ele>0</ele>
        <time>1970-01-01T01:00:00Z</time>
      </trkpt>
      <trkpt lat="55.602281" lon="12.967667">
        <ele>0</ele>
        <time>1970-01-01T01:00:00Z</time>
      </trkpt>
      <trkpt lat="55.602325" lon="12.967807">
        <ele>0</ele>
        <time>1970-01-01T01:00:00Z</time>
      </trkpt>
      <trkpt lat="55.602369" lon="12.967969">
        <ele>0</ele>
        <time>1970-01-01T01:00:00Z</time>
      </trkpt>
      <trkpt lat="55.602409" lon="12.968123">
        <ele>0.181818</ele>
        <time>1970-01-01T01:00:00Z</time>
      </trkpt>
      <trkpt lat="55.602444" lon="12.96826">
        <ele>0.454545</ele>
        <time>1970-01-01T01:00:00Z</time>
      </trkpt>
      <trkpt lat="55.602489" lon="12.968415">
        <ele>0.727273</ele>
        <time>1970-01-01T01:00:00Z</time>
      </trkpt>
      <trkpt lat="55.602531" lon="12.968558">
        <ele>1</ele>
        <time>1970-01-01T01:00:00Z</time>
      </trkpt>
      <trkpt lat="55.602568" lon="12.968701">
        <ele>1.27273</ele>
        <time>1970-01-01T01:00:00Z</time>
      </trkpt>
      <trkpt lat="55.602607" lon="12.968841">
        <ele>1.54545</ele>
        <time>1970-01-01T01:00:00Z</time>
      </trkpt>
      <trkpt lat="55.602652" lon="12.968986">
        <ele>1.72727</ele>
        <time>1970-01-01T01:00:00Z</time>
      </trkpt>
      <trkpt lat="55.602687" lon="12.96912">
        <ele>1.90909</ele>
        <time>1970-01-01T01:00:00Z</time>
      </trkpt>
      <trkpt lat="55.602743" lon="12.969258">
        <ele>2.09091</ele>
        <time>1970-01-01T01:00:00Z</time>
      </trkpt>
      <trkpt lat="55.602769" lon="12.969394">
        <ele>1.81818</ele>
        <time>1970-01-01T01:00:00Z</time>
      </trkpt>
      <trkpt lat="55.602812" lon="12.969522">
        <ele>1.54545</ele>
        <time>1970-01-01T01:00:00Z</time>
      </trkpt>
      <trkpt lat="55.60284" lon="12.96966">
        <ele>1.18182</ele>
        <time>1970-01-01T01:00:00Z</time>
      </trkpt>
      <trkpt lat="55.602875" lon="12.969802">
        <ele>0.909091</ele>
        <time>1970-01-01T01:00:00Z</time>
      </trkpt>
      <trkpt lat="55.602915" lon="12.969952">
        <ele>0.636364</ele>
        <time>1970-01-01T01:00:00Z</time>
      </trkpt>
      <trkpt lat="55.602958" lon="12.970091">
        <ele>0.363636</ele>
        <time>1970-01-01T01:00:00Z</time>
      </trkpt>
      <trkpt lat="55.603008" lon="12.970248">
        <ele>0.0909091</ele>
        <time>1970-01-01T01:00:00Z</time>
      </trkpt>
      <trkpt lat="55.603048" lon="12.970383">
        <ele>0</ele>
        <time>1970-01-01T01:00:00Z</time>
      </trkpt>
      <trkpt lat="55.603084" lon="12.970515">
        <ele>0</ele>
        <time>1970-01-01T01:00:00Z</time>
      </trkpt>
      <trkpt lat="55.603123" lon="12.970645">
        <ele>0</ele>
        <time>1970-01-01T01:00:00Z</time>
      </trkpt>
      <trkpt lat="55.603167" lon="12.970805">
        <ele>0</ele>
        <time>1970-01-01T01:00:00Z</time>
      </trkpt>
      <trkpt lat="55.603207" lon="12.970933">
        <ele>0</ele>
        <time>1970-01-01T01:00:00Z</time>
      </trkpt>
      <trkpt lat="55.603247" lon="12.971073">
        <ele>0</ele>
        <time>1970-01-01T01:00:00Z</time>
      </trkpt>
      <trkpt lat="55.603278" lon="12.971256">
        <ele>0</ele>
        <time>1970-01-01T01:00:00Z</time>
      </trkpt>
      <trkpt lat="55.603334" lon="12.971381">
        <ele>0.181818</ele>
        <time>1970-01-01T01:00:00Z</time>
      </trkpt>
      <trkpt lat="55.603382" lon="12.971538">
        <ele>0.454545</ele>
        <time>1970-01-01T01:00:00Z</time>
      </trkpt>
      <trkpt lat="55.603431" lon="12.971676">
        <ele>0.727273</ele>
        <time>1970-01-01T01:00:00Z</time>
      </trkpt>
      <trkpt lat="55.603485" lon="12.971819">
        <ele>1</ele>
        <time>1970-01-01T01:00:00Z</time>
      </trkpt>
      <trkpt lat="55.603525" lon="12.97198">
        <ele>1.27273</ele>
        <time>1970-01-01T01:00:00Z</time>
      </trkpt>
      <trkpt lat="55.603563" lon="12.972129">
        <ele>1.54545</ele>
        <time>1970-01-01T01:00:00Z</time>
      </trkpt>
      <trkpt lat="55.603599" lon="12.972269">
        <ele>1.54545</ele>
        <time>1970-01-01T01:00:00Z</time>
      </trkpt>
      <trkpt lat="55.603641" lon="12.972409">
        <ele>1.54545</ele>
        <time>1970-01-01T01:00:00Z</time>
      </trkpt>
      <trkpt lat="55.603683" lon="12.972541">
        <ele>1.54545</ele>
        <time>1970-01-01T01:00:00Z</time>
      </trkpt>
      <trkpt lat="55.603723" lon="12.972703">
        <ele>1.54545</ele>
        <time>1970-01-01T01:00:00Z</time>
      </trkpt>
      <trkpt lat="55.603763" lon="12.972856">
        <ele>1.54545</ele>
        <time>1970-01-01T01:00:00Z</time>
      </trkpt>
      <trkpt lat="55.603797" lon="12.972987">
        <ele>1.45455</ele>
        <time>1970-01-01T01:00:00Z</time>
      </trkpt>
      <trkpt lat="55.603833" lon="12.973139">
        <ele>1.36364</ele>
        <time>1970-01-01T01:00:00Z</time>
      </trkpt>
      <trkpt lat="55.603871" lon="12.973268">
        <ele>1.27273</ele>
        <time>1970-01-01T01:00:00Z</time>
      </trkpt>
      <trkpt lat="55.603903" lon="12.97343">
        <ele>1.18182</ele>
        <time>1970-01-01T01:00:00Z</time>
      </trkpt>
      <trkpt lat="55.603951" lon="12.973567">
        <ele>1.09091</ele>
        <time>1970-01-01T01:00:00Z</time>
      </trkpt>
      <trkpt lat="55.603993" lon="12.973696">
        <ele>1</ele>
        <time>1970-01-01T01:00:00Z</time>
      </trkpt>
      <trkpt lat="55.604042" lon="12.973823">
        <ele>1</ele>
        <time>1970-01-01T01:00:00Z</time>
      </trkpt>
      <trkpt lat="55.60408" lon="12.973968">
        <ele>1</ele>
        <time>1970-01-01T01:00:00Z</time>
      </trkpt>
      <trkpt lat="55.604119" lon="12.974112">
        <ele>1.09091</ele>
        <time>1970-01-01T01:00:00Z</time>
      </trkpt>
      <trkpt lat="55.604166" lon="12.974247">
        <ele>1.18182</ele>
        <time>1970-01-01T01:00:00Z</time>
      </trkpt>
      <trkpt lat="55.604216" lon="12.974395">
        <ele>1.27273</ele>
        <time>1970-01-01T01:00:00Z</time>
      </trkpt>
      <trkpt lat="55.604251" lon="12.974534">
        <ele>1.36364</ele>
        <time>1970-01-01T01:00:00Z</time>
      </trkpt>
      <trkpt lat="55.604288" lon="12.974671">
        <ele>1.45455</ele>
        <time>1970-01-01T01:00:00Z</time>
      </trkpt>
      <trkpt lat="55.604326" lon="12.974827">
        <ele>1.54545</ele>
        <time>1970-01-01T01:00:00Z</time>
      </trkpt>
      <trkpt lat="55.604368" lon="12.974964">
        <ele>1.63636</ele>
        <time>1970-01-01T01:00:00Z</time>
      </trkpt>
      <trkpt lat="55.604409" lon="12.975117">
        <ele>1.72727</ele>
        <time>1970-01-01T01:00:00Z</time>
      </trkpt>
      <trkpt lat="55.604442" lon="12.975264">
        <ele>1.54545</ele>
        <time>1970-01-01T01:00:00Z</time>
      </trkpt>
      <trkpt lat="55.604484" lon="12.975405">
        <ele>1.36364</ele>
        <time>1970-01-01T01:00:00Z</time>
      </trkpt>
      <trkpt lat="55.604524" lon="12.975552">
        <ele>1.18182</ele>
        <time>1970-01-01T01:00:00Z</time>
      </trkpt>
      <trkpt lat="55.604559" lon="12.975684">
        <ele>1.09091</ele>
        <time>1970-01-01T01:00:00Z</time>
      </trkpt>
      <trkpt lat="55.604618" lon="12.975814">
        <ele>1</ele>
        <time>1970-01-01T01:00:00Z</time>
      </trkpt>
      <trkpt lat="55.604647" lon="12.975957">
        <ele>0.909091</ele>
        <time>1970-01-01T01:00:00Z</time>
      </trkpt>
      <trkpt lat="55.604688" lon="12.976111">
        <ele>0.818182</ele>
        <time>1970-01-01T01:00:00Z</time>
      </trkpt>
      <trkpt lat="55.604742" lon="12.976265">
        <ele>0.727273</ele>
        <time>1970-01-01T01:00:00Z</time>
      </trkpt>
      <trkpt lat="55.604771" lon="12.976421">
        <ele>0.636364</ele>
        <time>1970-01-01T01:00:00Z</time>
      </trkpt>
      <trkpt lat="55.604803" lon="12.976588">
        <ele>0.545455</ele>
        <time>1970-01-01T01:00:00Z</time>
      </trkpt>
      <trkpt lat="55.604842" lon="12.976745">
        <ele>0.454545</ele>
        <time>1970-01-01T01:00:00Z</time>
      </trkpt>
      <trkpt lat="55.604869" lon="12.976882">
        <ele>0.636364</ele>
        <time>1970-01-01T01:00:00Z</time>
      </trkpt>
      <trkpt lat="55.604915" lon="12.97704">
        <ele>0.818182</ele>
        <time>1970-01-01T01:00:00Z</time>
      </trkpt>
      <trkpt lat="55.604963" lon="12.977199">
        <ele>1</ele>
        <time>1970-01-01T01:00:00Z</time>
      </trkpt>
      <trkpt lat="55.604994" lon="12.977353">
        <ele>1.09091</ele>
        <time>1970-01-01T01:00:00Z</time>
      </trkpt>
      <trkpt lat="55.605034" lon="12.977491">
        <ele>1.18182</ele>
        <time>1970-01-01T01:00:00Z</time>
      </trkpt>
      <trkpt lat="55.605078" lon="12.97762">
        <ele>1.27273</ele>
        <time>1970-01-01T01:00:00Z</time>
      </trkpt>
      <trkpt lat="55.605129" lon="12.977747">
        <ele>1.36364</ele>
        <time>1970-01-01T01:00:00Z</time>
      </trkpt>
      <trkpt lat="55.605165" lon="12.977887">
        <ele>1.45455</ele>
        <time>1970-01-01T01:00:00Z</time>
      </trkpt>
      <trkpt lat="55.605197" lon="12.978034">
        <ele>1.54545</ele>
        <time>1970-01-01T01:00:00Z</time>
      </trkpt>
      <trkpt lat="55.605238" lon="12.978177">
        <ele>1.63636</ele>
        <time>1970-01-01T01:00:00Z</time>
      </trkpt>
      <trkpt lat="55.605288" lon="12.978322">
        <ele>1.72727</ele>
        <time>1970-01-01T01:00:00Z</time>
      </trkpt>
      <trkpt lat="55.605293" lon="12.978468">
        <ele>1.81818</ele>
        <time>1970-01-01T01:00:00Z</time>
      </trkpt>
      <trkpt lat="55.605198" lon="12.978538">
        <ele>1.90909</ele>
        <time>1970-01-01T01:00:00Z</time>
      </trkpt>
      <trkpt lat="55.60511" lon="12.978564">
        <ele>2</ele>
        <time>1970-01-01T01:00:00Z</time>
      </trkpt>
      <trkpt lat="55.60503" lon="12.978607">
        <ele>2</ele>
        <time>1970-01-01T01:00:00Z</time>
      </trkpt>
      <trkpt lat="55.604951" lon="12.9787">
        <ele>2</ele>
        <time>1970-01-01T01:00:00Z</time>
      </trkpt>
      <trkpt lat="55.604877" lon="12.978777">
        <ele>2</ele>
        <time>1970-01-01T01:00:00Z</time>
      </trkpt>
      <trkpt lat="55.604795" lon="12.978858">
        <ele>2</ele>
        <time>1970-01-01T01:00:00Z</time>
      </trkpt>
      <trkpt lat="55.604699" lon="12.978897">
        <ele>2</ele>
        <time>1970-01-01T01:00:00Z</time>
      </trkpt>
      <trkpt lat="55.604629" lon="12.978791">
        <ele>2</ele>
        <time>1970-01-01T01:00:00Z</time>
      </trkpt>
      <trkpt lat="55.604577" lon="12.978675">
        <ele>2</ele>
        <time>1970-01-01T01:00:00Z</time>
      </trkpt>
      <trkpt lat="55.604518" lon="12.978554">
        <ele>2</ele>
        <time>1970-01-01T01:00:00Z</time>
      </trkpt>
      <trkpt lat="55.604467" lon="12.978437">
        <ele>2</ele>
        <time>1970-01-01T01:00:00Z</time>
      </trkpt>
      <trkpt lat="55.604419" lon="12.978309">
        <ele>2</ele>
        <time>1970-01-01T01:00:00Z</time>
      </trkpt>
      <trkpt lat="55.604373" lon="12.978149">
        <ele>2</ele>
        <time>1970-01-01T01:00:00Z</time>
      </trkpt>
      <trkpt lat="55.604327" lon="12.978022">
        <ele>2</ele>
        <time>1970-01-01T01:00:00Z</time>
      </trkpt>
      <trkpt lat="55.604264" lon="12.977879">
        <ele>2</ele>
        <time>1970-01-01T01:00:00Z</time>
      </trkpt>
      <trkpt lat="55.604199" lon="12.97774">
        <ele>2</ele>
        <time>1970-01-01T01:00:00Z</time>
      </trkpt>
      <trkpt lat="55.604133" lon="12.977598">
        <ele>2</ele>
        <time>1970-01-01T01:00:00Z</time>
      </trkpt>
      <trkpt lat="55.604088" lon="12.977463">
        <ele>2.54545</ele>
        <time>1970-01-01T01:00:00Z</time>
      </trkpt>
      <trkpt lat="55.604043" lon="12.977325">
        <ele>3.09091</ele>
        <time>1970-01-01T01:00:00Z</time>
      </trkpt>
      <trkpt lat="55.603983" lon="12.977203">
        <ele>3.63636</ele>
        <time>1970-01-01T01:00:00Z</time>
      </trkpt>
      <trkpt lat="55.603886" lon="12.977238">
        <ele>4.18182</ele>
        <time>1970-01-01T01:00:00Z</time>
      </trkpt>
      <trkpt lat="55.603796" lon="12.977299">
        <ele>4.72727</ele>
        <time>1970-01-01T01:00:00Z</time>
      </trkpt>
      <trkpt lat="55.603708" lon="12.977298">
        <ele>5.27273</ele>
        <time>1970-01-01T01:00:00Z</time>
      </trkpt>
      <trkpt lat="55.603633" lon="12.977384">
        <ele>5.81818</ele>
        <time>1970-01-01T01:00:00Z</time>
      </trkpt>
      <trkpt lat="55.603569" lon="12.977511">
        <ele>6.36364</ele>
        <time>1970-01-01T01:00:00Z</time>
      </trkpt>
      <trkpt lat="55.603494" lon="12.977565">
        <ele>6.90909</ele>
        <time>1970-01-01T01:00:00Z</time>
      </trkpt>
      <trkpt lat="55.603422" lon="12.977644">
        <ele>7.45455</ele>
        <time>1970-01-01T01:00:00Z</time>
      </trkpt>
      <trkpt lat="55.603347" lon="12.977708">
        <ele>8</ele>
        <time>1970-01-01T01:00:00Z</time>
      </trkpt>
      <trkpt lat="55.603272" lon="12.97779">
        <ele>7.90909</ele>
        <time>1970-01-01T01:00:00Z</time>
      </trkpt>
      <trkpt lat="55.603192" lon="12.977871">
        <ele>7.81818</ele>
        <time>1970-01-01T01:00:00Z</time>
      </trkpt>
      <trkpt lat="55.603102" lon="12.977886">
        <ele>7.72727</ele>
        <time>1970-01-01T01:00:00Z</time>
      </trkpt>
      <trkpt lat="55.603025" lon="12.977945">
        <ele>7.63636</ele>
        <time>1970-01-01T01:00:00Z</time>
      </trkpt>
      <trkpt lat="55.602938" lon="12.977904">
        <ele>7.54545</ele>
        <time>1970-01-01T01:00:00Z</time>
      </trkpt>
      <trkpt lat="55.60286" lon="12.977862">
        <ele>7.36364</ele>
        <time>1970-01-01T01:00:00Z</time>
      </trkpt>
      <trkpt lat="55.602767" lon="12.977851">
        <ele>7.18182</ele>
        <time>1970-01-01T01:00:00Z</time>
      </trkpt>
      <trkpt lat="55.602686" lon="12.977873">
        <ele>7</ele>
        <time>1970-01-01T01:00:00Z</time>
      </trkpt>
      <trkpt lat="55.602593" lon="12.977889">
        <ele>6.81818</ele>
        <time>1970-01-01T01:00:00Z</time>
      </trkpt>
      <trkpt lat="55.602519" lon="12.977981">
        <ele>6.63636</ele>
        <time>1970-01-01T01:00:00Z</time>
      </trkpt>
      <trkpt lat="55.602439" lon="12.97806">
        <ele>6.36364</ele>
        <time>1970-01-01T01:00:00Z</time>
      </trkpt>
      <trkpt lat="55.602356" lon="12.978099">
        <ele>6.18182</ele>
        <time>1970-01-01T01:00:00Z</time>
      </trkpt>
      <trkpt lat="55.602268" lon="12.978108">
        <ele>6</ele>
        <time>1970-01-01T01:00:00Z</time>
      </trkpt>
      <trkpt lat="55.602183" lon="12.978149">
        <ele>5.81818</ele>
        <time>1970-01-01T01:00:00Z</time>
      </trkpt>
      <trkpt lat="55.602111" lon="12.978219">
        <ele>5.63636</ele>
        <time>1970-01-01T01:00:00Z</time>
      </trkpt>
      <trkpt lat="55.602027" lon="12.978237">
        <ele>5.45455</ele>
        <time>1970-01-01T01:00:00Z</time>
      </trkpt>
      <trkpt lat="55.601946" lon="12.978197">
        <ele>5.36364</ele>
        <time>1970-01-01T01:00:00Z</time>
      </trkpt>
      <trkpt lat="55.60186" lon="12.978164">
        <ele>5.27273</ele>
        <time>1970-01-01T01:00:00Z</time>
      </trkpt>
      <trkpt lat="55.601785" lon="12.978224">
        <ele>5.18182</ele>
        <time>1970-01-01T01:00:00Z</time>
      </trkpt>
      <trkpt lat="55.601752" lon="12.978357">
        <ele>5.09091</ele>
        <time>1970-01-01T01:00:00Z</time>
      </trkpt>
      <trkpt lat="55.601713" lon="12.978496">
        <ele>5</ele>
        <time>1970-01-01T01:00:00Z</time>
      </trkpt>
      <trkpt lat="55.601631" lon="12.978532">
        <ele>5</ele>
        <time>1970-01-01T01:00:00Z</time>
      </trkpt>
      <trkpt lat="55.601544" lon="12.978561">
        <ele>5</ele>
        <time>1970-01-01T01:00:00Z</time>
      </trkpt>
      <trkpt lat="55.601458" lon="12.978583">
        <ele>5</ele>
        <time>1970-01-01T01:00:00Z</time>
      </trkpt>
      <trkpt lat="55.601379" lon="12.978618">
        <ele>5</ele>
        <time>1970-01-01T01:00:00Z</time>
      </trkpt>
      <trkpt lat="55.601298" lon="12.978651">
        <ele>5</ele>
        <time>1970-01-01T01:00:00Z</time>
      </trkpt>
      <trkpt lat="55.60121" lon="12.978679">
        <ele>5</ele>
        <time>1970-01-01T01:00:00Z</time>
      </trkpt>
      <trkpt lat="55.601118" lon="12.978716">
        <ele>5</ele>
        <time>1970-01-01T01:00:00Z</time>
      </trkpt>
      <trkpt lat="55.601031" lon="12.978751">
        <ele>5</ele>
        <time>1970-01-01T01:00:00Z</time>
      </trkpt>
      <trkpt lat="55.600975" lon="12.97887">
        <ele>5</ele>
        <time>1970-01-01T01:00:00Z</time>
      </trkpt>
      <trkpt lat="55.600965" lon="12.979039">
        <ele>5</ele>
        <time>1970-01-01T01:00:00Z</time>
      </trkpt>
      <trkpt lat="55.600917" lon="12.979169">
        <ele>5</ele>
        <time>1970-01-01T01:00:00Z</time>
      </trkpt>
      <trkpt lat="55.600936" lon="12.979315">
        <ele>5</ele>
        <time>1970-01-01T01:00:00Z</time>
      </trkpt>
      <trkpt lat="55.601002" lon="12.979417">
        <ele>5</ele>
        <time>1970-01-01T01:00:00Z</time>
      </trkpt>
      <trkpt lat="55.601083" lon="12.979481">
        <ele>5</ele>
        <time>1970-01-01T01:00:00Z</time>
      </trkpt>
      <trkpt lat="55.601174" lon="12.979507">
        <ele>5</ele>
        <time>1970-01-01T01:00:00Z</time>
      </trkpt>
    </trkseg>
  </trk>
</gpx>